• In Schweiz
  • Länderverzeichnis
  • Für 7 Tage
  • Wassertemperatur
  • Satellitenkarten
  • Wetterkarte
  • Widgets
  • user-avatar
    Anmelden

    Stündliche Wetter Shaftorka

    Heute, 24 Mai, Donnerstag

    Zeit Temperatur Niederschläge Wind Luftdruck Luftfeuchtigkeit
    00:00 +16°C° 0,4 mm 0 m/S 753 mmHg 92%
    01:00 +18°C° 0,6 mm 1 m/S 753 mmHg 93%
    02:00 +18°C° 0,6 mm 1 m/S 753 mmHg 94%
    03:00 +18°C° 0,6 mm 1 m/S 753 mmHg 95%
    04:00 +18°C° 1,7 mm 1 m/S 753 mmHg 96%
    05:00 +18°C° 1,7 mm 1 m/S 752 mmHg 96%
    06:00 +18°C° 1,7 mm 1 m/S 752 mmHg 96%
    07:00 +17°C° 0,7 mm 2 m/S 752 mmHg 95%
    08:00 +18°C° 0,7 mm 2 m/S 752 mmHg 94%
    09:00 +18°C° 0,7 mm 2 m/S 752 mmHg 93%
    10:00 +18°C° 0,7 mm 2 m/S 752 mmHg 92%
    11:00 +19°C° 0,7 mm 2 m/S 752 mmHg 91%
    12:00 +19°C° 0,7 mm 2 m/S 752 mmHg 90%
    13:00 +19°C° 0,4 mm 3 m/S 751 mmHg 88%
    14:00 +20°C° 0,4 mm 3 m/S 751 mmHg 87%
    15:00 +20°C° 0,4 mm 3 m/S 751 mmHg 86%
    16:00 +20°C° 0,3 mm 3 m/S 751 mmHg 87%
    17:00 +20°C° 0,3 mm 3 m/S 751 mmHg 87%
    18:00 +20°C° 0,3 mm 3 m/S 750 mmHg 88%
    19:00 +19°C° 0 mm 3 m/S 750 mmHg 89%
    20:00 +18°C° 0 mm 3 m/S 751 mmHg 90%
    21:00 +17°C° 0 mm 3 m/S 751 mmHg 92%
    22:00 +17°C° 0 mm 4 m/S 751 mmHg 91%
    23:00 +15°C° 0 mm 4 m/S 751 mmHg 89%

    Morgen, 25 Mai, Freitag

    Zeit Temperatur Niederschläge Wind Luftdruck Luftfeuchtigkeit
    00:00 +15°C° 0 mm 4 m/S 750 mmHg 88%
    01:00 +14°C° 0 mm 4 m/S 751 mmHg 87%
    02:00 +14°C° 0 mm 5 m/S 751 mmHg 86%
    03:00 +14°C° 0 mm 5 m/S 751 mmHg 85%
    04:00 +14°C° 0 mm 6 m/S 751 mmHg 84%
    05:00 +13°C° 0 mm 6 m/S 752 mmHg 84%
    06:00 +13°C° 0 mm 6 m/S 752 mmHg 83%
    07:00 +14°C° 0 mm 7 m/S 753 mmHg 76%
    08:00 +15°C° 0 mm 7 m/S 753 mmHg 68%
    09:00 +15°C° 0 mm 7 m/S 754 mmHg 61%
    10:00 +16°C° 0 mm 7 m/S 754 mmHg 57%
    11:00 +16°C° 0 mm 7 m/S 754 mmHg 53%
    12:00 +17°C° 0 mm 7 m/S 755 mmHg 49%
    13:00 +17°C° 0 mm 7 m/S 755 mmHg 49%
    14:00 +17°C° 0 mm 7 m/S 755 mmHg 48%
    15:00 +17°C° 0 mm 7 m/S 756 mmHg 48%
    16:00 +16°C° 0 mm 6 m/S 756 mmHg 50%
    17:00 +16°C° 0 mm 5 m/S 756 mmHg 53%
    18:00 +15°C° 0 mm 5 m/S 756 mmHg 56%
    19:00 +14°C° 0 mm 4 m/S 757 mmHg 59%
    20:00 +12°C° 0 mm 3 m/S 758 mmHg 63%
    21:00 +10°C° 0 mm 3 m/S 758 mmHg 67%
    22:00 +9°C° 0 mm 3 m/S 759 mmHg 69%
    23:00 +9°C° 0 mm 3 m/S 759 mmHg 71%

    übermorgen, 26 Mai, Samstag

    Zeit Temperatur Niederschläge Wind Luftdruck Luftfeuchtigkeit
    00:00 +8°C° 0 mm 2 m/S 760 mmHg 73%
    01:00 +7°C° 0 mm 2 m/S 760 mmHg 73%
    02:00 +7°C° 0 mm 2 m/S 760 mmHg 74%
    03:00 +6°C° 0 mm 2 m/S 761 mmHg 74%
    04:00 +7°C° 0 mm 2 m/S 761 mmHg 71%
    05:00 +8°C° 0 mm 2 m/S 762 mmHg 68%
    06:00 +8°C° 0 mm 3 m/S 762 mmHg 66%
    07:00 +10°C° 0 mm 3 m/S 763 mmHg 59%
    08:00 +12°C° 0 mm 3 m/S 763 mmHg 52%
    09:00 +13°C° 0 mm 4 m/S 763 mmHg 46%
    10:00 +14°C° 0 mm 4 m/S 763 mmHg 43%
    11:00 +16°C° 0 mm 3 m/S 763 mmHg 41%
    12:00 +17°C° 0 mm 3 m/S 763 mmHg 39%
    13:00 +18°C° 0 mm 3 m/S 763 mmHg 38%
    14:00 +19°C° 0 mm 2 m/S 763 mmHg 38%
    15:00 +19°C° 0 mm 2 m/S 763 mmHg 37%
    16:00 +19°C° 0 mm 2 m/S 763 mmHg 41%
    17:00 +20°C° 0 mm 1 m/S 763 mmHg 46%
    18:00 +19°C° 0 mm 1 m/S 762 mmHg 50%
    19:00 +16°C° 0 mm 1 m/S 763 mmHg 53%
    20:00 +14°C° 0 mm 1 m/S 763 mmHg 56%
    21:00 +12°C° 0 mm 1 m/S 763 mmHg 60%
    22:00 +11°C° 0 mm 1 m/S 763 mmHg 62%
    23:00 +10°C° 0 mm 2 m/S 763 mmHg 65%

    27 Mai, Sonntag

    Zeit Temperatur Niederschläge Wind Luftdruck Luftfeuchtigkeit
    00:00 +9°C° 0 mm 2 m/S 763 mmHg 68%
    01:00 +9°C° 0 mm 2 m/S 763 mmHg 70%
    02:00 +8°C° 0 mm 2 m/S 763 mmHg 72%
    03:00 +8°C° 0 mm 2 m/S 763 mmHg 74%
    04:00 +9°C° 0 mm 2 m/S 763 mmHg 74%
    05:00 +9°C° 0 mm 2 m/S 763 mmHg 74%
    06:00 +10°C° 0 mm 2 m/S 763 mmHg 73%
    07:00 +13°C° 0 mm 2 m/S 763 mmHg 67%
    08:00 +14°C° 0 mm 3 m/S 763 mmHg 62%
    09:00 +17°C° 0 mm 3 m/S 762 mmHg 56%
    10:00 +18°C° 0 mm 3 m/S 762 mmHg 53%
    11:00 +19°C° 0 mm 3 m/S 762 mmHg 51%
    12:00 +20°C° 0 mm 4 m/S 761 mmHg 48%
    13:00 +20°C° 0 mm 4 m/S 761 mmHg 48%
    14:00 +20°C° 0 mm 4 m/S 760 mmHg 48%
    15:00 +20°C° 0 mm 4 m/S 759 mmHg 48%
    16:00 +20°C° 0 mm 4 m/S 759 mmHg 52%
    17:00 +19°C° 0 mm 4 m/S 758 mmHg 56%
    18:00 +19°C° 0 mm 3 m/S 758 mmHg 60%
    19:00 +17°C° 0 mm 3 m/S 758 mmHg 66%
    20:00 +14°C° 0 mm 3 m/S 757 mmHg 72%
    21:00 +12°C° 0 mm 3 m/S 757 mmHg 77%
    22:00 +12°C° 0 mm 3 m/S 757 mmHg 78%
    23:00 +11°C° 0 mm 3 m/S 757 mmHg 79%

    28 Mai, Montag

    Zeit Temperatur Niederschläge Wind Luftdruck Luftfeuchtigkeit
    00:00 +11°C° 0 mm 3 m/S 756 mmHg 80%
    01:00 +11°C° 0 mm 3 m/S 756 mmHg 80%
    02:00 +11°C° 0 mm 3 m/S 756 mmHg 80%
    03:00 +10°C° 0 mm 3 m/S 756 mmHg 80%
    04:00 +11°C° 0,1 mm 3 m/S 756 mmHg 81%
    05:00 +11°C° 0,1 mm 3 m/S 756 mmHg 82%
    06:00 +12°C° 0,1 mm 3 m/S 756 mmHg 83%
    07:00 +13°C° 0,1 mm 3 m/S 756 mmHg 83%
    08:00 +13°C° 0,1 mm 3 m/S 756 mmHg 84%
    09:00 +14°C° 0,1 mm 3 m/S 757 mmHg 84%
    10:00 +17°C° 0,1 mm 3 m/S 757 mmHg 74%
    11:00 +18°C° 0,1 mm 4 m/S 757 mmHg 63%
    12:00 +19°C° 0,1 mm 4 m/S 757 mmHg 53%
    13:00 +20°C° 0 mm 4 m/S 757 mmHg 50%
    14:00 +20°C° 0 mm 5 m/S 757 mmHg 47%
    15:00 +20°C° 0 mm 5 m/S 757 mmHg 44%
    16:00 +19°C° 0 mm 4 m/S 757 mmHg 47%
    17:00 +18°C° 0 mm 4 m/S 757 mmHg 49%
    18:00 +17°C° 0 mm 4 m/S 758 mmHg 52%
    19:00 +14°C° 0 mm 3 m/S 758 mmHg 56%
    20:00 +12°C° 0 mm 3 m/S 758 mmHg 59%
    21:00 +10°C° 0 mm 2 m/S 758 mmHg 63%
    22:00 +9°C° 0 mm 2 m/S 759 mmHg 64%
    23:00 +8°C° 0 mm 2 m/S 759 mmHg 65%

    29 Mai, Dienstag

    Zeit Temperatur Niederschläge Wind Luftdruck Luftfeuchtigkeit
    00:00 +8°C° 0 mm 2 m/S 759 mmHg 66%
    01:00 +7°C° 0 mm 2 m/S 759 mmHg 67%
    02:00 +7°C° 0 mm 2 m/S 759 mmHg 68%
    03:00 +7°C° 0 mm 2 m/S 758 mmHg 68%
    04:00 +8°C° 0 mm 3 m/S 758 mmHg 67%
    05:00 +8°C° 0 mm 4 m/S 758 mmHg 65%
    06:00 +9°C° 0 mm 5 m/S 758 mmHg 63%
    07:00 +10°C° 0 mm 5 m/S 757 mmHg 60%
    08:00 +13°C° 0 mm 6 m/S 757 mmHg 57%
    09:00 +15°C° 0 mm 6 m/S 757 mmHg 54%
    10:00 +16°C° 0 mm 6 m/S 756 mmHg 52%
    11:00 +17°C° 0 mm 6 m/S 756 mmHg 51%
    12:00 +20°C° 0 mm 6 m/S 756 mmHg 50%
    13:00 +20°C° 0 mm 6 m/S 756 mmHg 49%
    14:00 +20°C° 0 mm 6 m/S 756 mmHg 49%
    15:00 +20°C° 0 mm 6 m/S 755 mmHg 49%
    16:00 +20°C° 0 mm 5 m/S 755 mmHg 52%
    17:00 +20°C° 0 mm 4 m/S 755 mmHg 55%
    18:00 +19°C° 0 mm 3 m/S 755 mmHg 57%
    19:00 +17°C° 0 mm 3 m/S 755 mmHg 63%
    20:00 +15°C° 0 mm 2 m/S 756 mmHg 68%
    21:00 +13°C° 0 mm 1 m/S 756 mmHg 74%
    22:00 +13°C° 0 mm 1 m/S 756 mmHg 76%
    23:00 +12°C° 0 mm 1 m/S 756 mmHg 78%
    Mehr zeigen